SCP
0 0 0 0 0 0 0 0 0 0 0 0 0 0 0 0 0 0 0 0 0 0 0 0 0 0 0 0 0 0 0 0 0 0 0 0 0 0 0 0 0 0 0 0
0 0 0 0 0 0 0 0 0 0 0 0 0 0 0 0 0 0 0 0 0 0 0 0 0 0 0 0 0 0 0 0 0 0 0 0 0 0 0 0 0 0 0 0
0 0 0 0 0 0 0 0 0 0 0 0 0 0 0 0 0 0 0 0 0 0 0 0 0 0 0 0 0 0 0 0 0 0 0 0 0 0 0 0 0 0 0 0
0 0 0 0 0 0 0 0 0 0 0 0 0 0 0 0 0 0 0 0 0 0 0 0 0 0 0 0 0 0 0 0 0 0 0 0 0 0 0 0 0 0 0 0
0 0 0 0 0 0 0 0 0 0 0 0 0 0 0 0 0 0 0 0 0 0 0 -0 -0 -0 -0 0 0 0 0 0 0 0 0 0 0 0 0 0 0 0 0 0
0 0 0 0 0 0 0 0 0 0 0 0 0 0 0 0 0 0 0 0 0 0 0 0 0 0 -0 -0 0 0 0 0 0 0 0 0 0 0 0 0 0 0 0 0
0 0 0 0 0 0 0 0 0 0 0 0 0 0 0 0 0 0 0 0 0 0 0 0 0 0 0 0 0 0 0 0 0 0 0 0 0 0 0 0 0 0 0 0
0 0 0 0 0 0 0 0 0 0 0 0 0 0 0 0 0 0 0 0 0 0 0 0 0 0 0 0 0 0 0 0 0 0 0 0 0 0 0 0 0 0 0 0
0 0 0 0 0 0 0 0 0 0 0 0 0 0 0 0 0 0 0 0 0 0 0 0 0 0 0 0 0 0 0 0 0 0 0 0 0 0 0 0 0 0 0 0
0 0 0 0 0 0 0 0 0 0 0 0 0 0 0 0 0 0 0 0 0 0 0 0 0 0 0 0 0 0 0 0 0 0 0 0 0 0 0 0 0 0 0 0
0 0 0 0 0 0 0 0 0 0 0 0 0 0 0 0 0 0 0 0 0 0 0 0 0 0 0 0 0 0 0 0 0 0 0 0 0 0 0 0 0 0 0 0
0 0 0 0 0 0 0 0 0 0 0 0 0 0 0 0 0 0 0 0 0 0 0 0 0 0 0 0 0 0 0 0 0 0 0 0 0 0 0 0 0 0 0 0
0 0 0 0 0 0 0 0 0 0 0 0 0 0 0 0 0 0 0 0 0 0 0 0 0 0 0 0 0 0 0 0 0 0 0 0 0 0 0 0 0 0 0 0
0 0 0 0 0 0 0 0 0 0 0 0 0 0 0 0 0 0 0 0 0 0 0 0 0 0 0 0 0 0 0 0 0 0 0 0 0 0 0 0 0 0 0 0
0 0 0 0 0 0 0 0 0 0 0 0 0 0 0 0 0 0 0 0 0 0 0 0 0 0 0 0 0 0 0 0 0 0 0 0 0 0 0 0 0 0 0 0
0 0 0 0 0 0 0 0 0 0 0 0 0 0 0 0 0 0 0 0 0 0 0 0 0 0 0 0 0 0 0 0 0 0 0 0 0 0 0 0 0 0 0 0
0 0 0 0 0 0 0 0 0 0 0 0 0 0 0 0 0 0 0 0 0 0 0 0 0 0 0 0 0 0 0 0 0 0 0 0 0 0 0 0 0 0 0 0
0 0 0 0 0 0 0 0 0 0 0 0 0 0 0 0 0 0 0 0 0 0 0 0 0 0 0 0 0 0 0 0 0 0 0 0 0 0 0 0 0 0 0 0
0 0 0 0 0 0 0 0 0 0 0 0 0 0 0 0 0 0 0 0 0 0 0 0 0 0 0 0 0 0 0 0 0 0 0 0 0 0 0 0 0 0 0 0
0 0 0 0 0 0 0 0 0 0 0 0 0 0 0 0 0 0 0 0 0 0 0 0 0 0 0 0 0 0 0 0 0 0 0 0 0 0 0 0 0 0 0 0
0 0 0 0 0 0 0 0 0 0 0 0 0 0 0 0 0 0 0 0 0 0 0 0 0 0 0 0 0 0 0 0 0 0 0 0 0 0 0 0 0 0 0 0
0 0 0 0 0 0 0 0 0 0 0 0 0 0 0 0 0 0 0 0 0 0 0 0 0 0 0 0 0 0 0 0 0 0 0 0 0 0 0 0 0 0 0 0
0 0 0 0 0 0 0 0 0 0 0 0 0 0 0 0 0 0 0 0 0 0 0 0 0 0 0 0 0 0 0 0 0 0 0 0 0 0 0 0 0 0 0 0
0 0 0 0 0 0 0 0 0 0 0 0 0 0 0 0 0 0 0 0 0 0 0 0 0 0 0 0 0 0 0 0 0 0 0 0 0 0 0 0 0 0 0 0
0 0 0 0 0 0 0 0 0 0 0 0 0 0 0 0 0 0 0 0 0 0 0 0 0 0 0 0 0 0 0 0 0 0 0 0 0 0 0 0 0 0 0 0
0 0 0 0 0 0 0 0 0 0 0 0 0 0 0 0 0 0 0 0 0 0 0 0 0 0 0 0 0 0 0 0 0 0 0 0 0 0 0 0 0 0 0 0
0 0 0 0 0 0 0 0 0 0 0 0 0 0 0 0 0 0 0 0 0 0 0 0 0 0 0 0 0 0 0 0 0 0 0 0 0 0 0 0 0 0 0 0
Wind_Speed
2 1 1 0 1 1 3 4 5 3 1 5 6 6 7 7 8 10 10 9 8 6 5 5 4 4 3 4 4 5 6 7 8 7 6 5 5 4 4 3 3 3 2 2
2 2 2 2 3 2 2 1 2 2 1 4 4 4 7 8 9 10 10 10 9 8 7 6 5 5 4 4 3 4 6 8 7 5 6 6 6 5 4 4 3 3 3 2
2 3 3 2 2 2 3 2 3 2 2 4 5 6 6 7 8 9 9 10 10 9 7 6 6 5 5 4 3 3 5 6 6 6 6 7 6 5 5 5 4 4 4 3
1 2 1 3 1 4 6 4 2 1 1 3 3 2 2 5 7 9 10 10 10 10 9 7 6 5 4 3 2 3 4 5 5 6 7 6 6 7 7 5 5 5 5 4
3 1 2 2 0 1 2 1 3 2 4 5 5 3 3 6 6 6 7 7 7 7 7 7 7 6 5 4 3 3 4 5 6 6 7 7 8 8 7 6 6 5 4 5
4 3 4 4 3 2 3 1 2 2 3 5 4 4 5 8 7 7 7 7 7 8 7 8 7 6 5 5 4 5 6 6 6 6 7 8 9 8 6 6 7 6 5 5
3 3 5 3 4 2 3 4 2 1 2 2 1 3 6 8 7 7 7 7 7 7 7 7 7 5 5 5 6 7 7 6 5 6 7 8 7 6 6 6 6 6 6 5
4 3 6 2 2 3 3 1 0 1 2 2 3 4 5 7 7 8 8 7 7 7 7 7 6 5 6 7 8 7 6 6 6 6 6 6 6 6 6 7 7 6 6 5
6 5 2 0 2 1 2 1 1 1 2 2 3 5 6 6 7 7 7 7 7 7 8 8 6 5 7 9 8 8 7 7 7 6 6 5 5 6 5 6 6 6 6 6
1 3 2 1 1 0 1 1 1 1 2 2 3 5 6 7 7 7 7 7 7 7 8 9 8 7 7 8 8 7 8 8 7 6 6 5 5 5 5 6 7 7 7 7
2 3 1 2 2 1 0 1 1 2 2 2 3 5 6 6 7 7 7 7 6 7 8 9 9 8 8 8 8 8 8 8 7 6 6 5 6 6 7 8 9 9 8 8
6 6 5 5 4 2 2 2 2 2 3 3 3 5 6 6 7 7 8 7 7 8 8 9 9 9 8 7 7 8 8 8 6 5 5 5 5 5 7 8 10 13 11 10
4 3 4 3 3 3 3 3 3 3 3 4 5 5 6 6 6 7 8 8 9 9 9 9 9 10 9 7 7 7 8 8 6 6 5 5 5 5 5 5 7 9 12 13
3 2 2 3 3 3 3 3 3 3 4 4 5 5 6 6 7 8 9 9 9 9 9 9 9 10 9 7 7 8 8 9 8 6 5 6 6 6 6 5 5 5 7 11
4 4 5 4 3 2 2 2 2 4 4 5 5 5 6 7 8 9 9 9 9 9 10 10 10 11 9 8 8 9 8 7 6 6 6 6 6 6 6 7 6 4 3 5
3 2 3 3 4 3 3 3 3 5 5 5 6 7 7 8 8 9 9 9 8 10 11 10 11 11 9 8 8 8 7 12 11 7 6 5 5 6 6 6 6 6 6 6
4 4 4 4 4 5 5 5 5 6 6 6 7 8 8 8 9 9 10 9 8 10 10 10 11 11 10 9 8 7 7 8 13 9 6 6 6 6 6 6 7 7 7 7
6 6 6 6 6 5 5 5 6 6 6 7 7 7 7 8 9 10 11 10 9 10 10 10 10 11 10 9 8 7 7 7 7 7 7 7 7 7 7 7 7 8 6 6
3 4 4 5 5 5 5 6 6 6 6 6 6 7 8 9 9 10 10 9 10 11 11 10 17 14 11 12 13 7 7 8 8 7 7 9 8 7 7 7 7 7 7 6
2 3 3 4 4 4 5 6 6 6 6 6 7 7 8 9 9 10 9 9 8 9 10 13 13 11 10 11 15 7 8 8 9 8 7 7 7 8 7 8 8 8 8 8
3 3 4 4 5 5 6 6 6 7 7 6 7 8 9 10 9 9 8 9 10 10 11 16 11 9 9 12 15 8 8 8 8 8 8 8 8 8 8 8 8 8 8 8
3 4 5 5 5 6 6 5 6 7 7 7 8 8 8 9 9 9 9 8 10 15 11 8 8 13 17 18 8 8 8 9 8 7 8 8 8 9 8 8 8 8 8 8
4 4 5 6 6 6 6 6 6 6 7 8 8 9 9 8 7 7 10 8 8 15 12 8 14 22 25 13 7 8 9 9 8 8 8 8 9 9 9 9 8 8 8 8
5 5 6 6 4 4 6 8 7 6 7 8 8 9 8 7 7 7 8 14 18 19 11 13 21 23 21 8 7 8 8 8 8 8 8 8 8 8 8 8 8 8 8 9
6 6 6 5 5 6 7 7 7 7 7 7 8 9 7 6 7 8 8 10 16 18 10 14 21 22 13 8 8 9 9 9 9 9 8 8 8 8 8 8 7 7 7 8
6 6 6 7 6 6 5 5 5 6 6 7 7 7 7 6 7 8 7 9 12 16 12 9 10 12 9 9 9 9 9 9 10 9 8 8 8 8 7 7 7 6 7 7
6 5 5 5 5 6 5 5 6 7 6 7 8 8 7 7 7 8 9 8 8 9 9 9 8 8 8 8 9 9 8 8 8 8 8 7 7 6 6 6 5 5 5 6
Wind_Direction
223 256 109 27 356 107 149 172 170 211 187 322 333 336 339 349 1 12 7 1 352 341 332 327 325 311 287 267 240 213 203 211 220 218 212 212 216 217 216 216 223 224 229 254
11 40 74 51 8 50 88 103 128 95 358 320 329 356 7 7 11 8 357 351 345 338 334 329 320 314 302 288 263 220 214 222 224 216 212 213 215 212 210 218 224 218 220 230
285 313 34 11 357 93 93 47 118 135 262 318 346 7 8 4 8 359 347 343 342 335 324 313 307 301 294 286 284 237 230 232 224 215 218 220 215 208 211 215 212 217 224 219
102 41 225 234 15 116 110 74 54 84 315 321 306 298 18 25 8 353 347 344 339 336 330 321 313 312 305 303 296 258 244 243 232 219 223 221 211 214 217 209 206 213 220 218
112 131 283 293 103 150 150 96 14 11 344 337 324 348 359 10 358 339 331 328 325 324 325 328 330 327 325 317 306 292 266 254 242 225 225 220 217 220 215 205 209 210 211 209
119 153 231 245 295 302 123 199 327 357 344 344 14 13 314 335 336 330 332 333 334 334 338 342 337 336 331 320 310 291 281 268 259 235 226 226 224 221 212 206 212 208 212 210
141 195 256 273 308 56 137 246 283 314 330 349 348 244 282 316 326 328 329 330 335 339 340 332 329 334 326 319 301 289 291 282 266 248 238 234 228 219 208 205 205 208 213 215
144 183 247 310 63 127 206 226 242 325 326 322 301 304 315 322 325 330 333 334 335 337 333 330 330 329 320 308 301 304 298 285 271 257 247 243 226 220 209 200 201 209 212 221
184 203 224 11 142 168 153 155 260 298 314 323 321 320 322 324 325 325 326 328 328 327 326 328 326 322 309 305 312 313 307 293 280 271 254 243 227 219 208 202 205 209 207 217
237 247 228 215 161 75 113 166 244 290 309 325 316 316 321 322 323 322 320 320 321 325 325 322 320 311 302 306 311 310 305 300 290 278 267 251 238 224 213 207 210 211 211 215
247 262 276 264 242 232 201 57 359 331 318 306 309 312 312 315 314 313 312 309 312 313 310 310 312 308 308 313 315 311 306 301 296 281 268 255 242 234 227 223 212 209 213 207
217 216 194 232 232 205 198 247 260 285 308 309 305 304 311 311 308 308 309 308 308 306 305 306 309 307 306 307 310 310 309 306 297 288 278 262 252 263 254 247 239 229 219 208
211 208 197 223 212 200 209 241 265 272 274 290 300 301 306 304 305 307 308 309 306 302 300 301 303 304 302 304 305 302 299 299 294 286 280 267 251 245 261 272 257 238 225 215
208 156 197 223 229 235 237 257 271 278 279 277 285 295 299 300 301 306 306 302 300 301 301 300 299 299 298 299 299 296 297 297 297 282 275 268 254 245 242 241 248 252 233 220
219 202 211 227 229 242 254 260 276 284 286 290 290 293 297 300 301 299 298 300 302 303 302 302 301 299 299 296 297 295 294 293 291 284 275 269 261 249 241 239 240 239 233 221
217 215 211 213 228 243 258 263 263 269 276 281 287 289 290 291 292 293 296 301 304 304 302 301 298 296 299 296 295 292 286 296 303 292 283 276 267 254 243 237 236 228 221 212
182 213 221 236 243 251 251 248 246 255 266 275 280 287 293 298 300 300 299 297 293 292 293 294 293 295 295 291 287 286 286 290 298 294 278 271 265 254 245 235 234 233 228 212
204 210 212 217 226 242 255 258 258 260 263 270 282 289 292 294 293 294 296 298 300 298 293 289 292 299 295 292 287 281 281 282 279 279 277 272 266 257 246 238 234 233 233 213
213 220 229 232 232 234 246 256 260 261 267 276 281 283 283 284 286 289 294 298 299 298 295 293 304 308 298 293 295 280 279 280 279 275 275 276 271 260 248 240 235 231 220 207
230 242 251 255 252 245 251 259 265 270 272 274 279 284 287 288 290 291 293 289 280 277 284 294 298 294 292 292 295 280 276 277 276 273 273 272 269 262 253 244 235 228 219 210
236 247 254 257 261 262 258 259 263 269 275 276 274 277 281 286 290 290 291 294 289 286 289 296 298 292 292 294 297 284 276 273 272 269 267 267 269 263 256 248 237 229 221 212
239 245 256 260 258 263 264 260 261 268 276 278 276 277 281 287 292 292 281 276 283 294 297 288 288 294 302 304 291 283 277 272 270 268 266 265 265 261 255 247 238 230 221 211
248 251 258 258 255 258 268 268 263 265 269 271 274 276 276 278 282 286 292 289 288 297 301 287 293 303 307 307 290 284 280 274 270 268 266 264 263 261 256 249 239 228 217 208
253 256 257 260 260 263 268 269 266 264 264 268 268 267 269 278 282 273 271 290 299 302 297 290 297 304 310 303 290 285 281 275 270 268 266 265 263 260 256 249 240 224 211 203
252 256 260 262 261 257 257 265 273 273 272 272 273 272 267 256 262 280 287 289 296 303 297 295 301 306 306 292 290 287 284 278 275 274 267 266 265 262 256 248 237 219 204 200
249 250 250 246 247 253 257 258 263 270 273 277 279 276 275 272 271 277 283 286 289 297 298 291 291 295 291 289 289 289 287 287 287 282 274 270 267 263 258 249 235 218 205 197
255 254 256 263 262 252 249 251 257 265 265 266 274 279 279 280 282 283 286 288 292 294 294 293 290 287 288 289 290 291 290 286 283 282 279 273 267 261 255 244 230 210 194 185